Weather History for Whiting Fld NAS, FL

Change the Weather History Date:

Sunday, January 12, 2014

  Actual Average Record
Temperature  
Mean Temperature 50 °F -  
Max Temperature 66 °F 59 °F 78 °F (2013)
Min Temperature 35 °F 40 °F 27 °F (1997)
Degree Days  
Heating Degree Days 14    
Moisture  
Dew Point 35 °F    
Average Humidity 62    
Maximum Humidity 89    
Minimum Humidity 27    
Precipitation  
Precipitation 0.00 in - - ()
Sea Level Pressure  
Sea Level Pressure 30.13 in    
Wind  
Wind Speed 3 mph (SW)    
Max Wind Speed 14 mph    
Max Gust Speed -    
Visibility 10 miles    
Events      
Averages and records for this station are not official NWS values.
T = Trace of Precipitation, MM = Missing Value Source: NWS Daily Summary

Daily Weather History Graph

Daily Weather History Graph

Search for Another Location

Airport:

Trip Planner

Search our weather history database for the weather conditions in past years. The results will help you decide how hot, cold, wet, or windy it might be!

Date:

Astronomy

Jan. 12, 2014 Rise Set
Actual Time 6:46 AM CST 5:06 PM CST
Civil Twilight 6:20 AM CST 5:32 PM CST
Nautical Twilight 5:50 AM CST 6:02 PM CST
Astronomical Twilight 5:21 AM CST 6:31 PM CST
Moon 2:32 PM CST (1/12) 3:46 AM CST (1/12)
Length of Visible Light 11h 12m
Length of Day
10h 20m
Waxing Gibbous, 90% of the Moon is Illuminated
Jan 12
Waxing Gibbous
Jan 15
Full
Jan 23
Last Quarter
Jan 30
New
Feb 6
First Quarter

Hourly Weather History & Observations

Time (CST) Temp. Windchill Dew Point Humidity Pressure Visibility Wind Dir Wind Speed Gust Speed Precip Events Conditions
12:56 AM 45.0 °F 42.6 °F 33.1 °F 63% 30.06 in 10.0 mi NW 4.6 mph - N/A   Clear
1:56 AM 37.9 °F - 33.1 °F 83% 30.06 in 10.0 mi Calm Calm - N/A   Clear
2:56 AM 39.0 °F 35.7 °F 32.0 °F 76% 30.08 in 10.0 mi West 4.6 mph - N/A   Clear
3:56 AM 42.1 °F 37.1 °F 33.1 °F 70% 30.08 in 10.0 mi NNW 8.1 mph - N/A   Clear
4:56 AM 41.0 °F 37.1 °F 32.0 °F 70% 30.09 in 10.0 mi North 5.8 mph - N/A   Clear
5:56 AM 36.0 °F - 30.9 °F 82% 30.12 in 10.0 mi Calm Calm - N/A   Clear
6:56 AM 35.1 °F - 30.9 °F 85% 30.14 in 10.0 mi Calm Calm - N/A   Clear
7:56 AM 44.1 °F - 37.9 °F 79% 30.17 in 10.0 mi Calm Calm - N/A   Clear
8:21 AM 50.0 °F - 39.0 °F 66% 30.21 in 10.0 mi Calm Calm - N/A   Partly Cloudy
8:56 AM 54.0 °F - 37.9 °F 55% 30.19 in 10.0 mi Calm Calm - N/A   Clear
9:56 AM 59.0 °F - 36.0 °F 42% 30.20 in 10.0 mi Calm Calm - N/A   Clear
10:56 AM 62.1 °F - 34.0 °F 35% 30.18 in 10.0 mi Variable 3.5 mph - N/A   Clear
11:56 AM 64.0 °F - 33.1 °F 31% 30.15 in 10.0 mi Calm Calm - N/A   Clear
12:56 PM 66.0 °F - 30.9 °F 27% 30.12 in 10.0 mi Calm Calm - N/A   Clear
1:56 PM 66.0 °F - 30.9 °F 27% 30.11 in 10.0 mi West 4.6 mph - N/A   Clear
2:56 PM 66.0 °F - 34.0 °F 30% 30.11 in 10.0 mi South 10.4 mph - N/A   Scattered Clouds
3:56 PM 62.1 °F - 34.0 °F 35% 30.11 in 10.0 mi South 13.8 mph - N/A   Partly Cloudy
4:56 PM 57.0 °F - 37.0 °F 47% 30.12 in 10.0 mi South 11.5 mph - N/A   Partly Cloudy
5:56 PM 52.0 °F - 39.0 °F 61% 30.13 in 10.0 mi South 6.9 mph - N/A   Partly Cloudy
6:56 PM 46.9 °F - 39.0 °F 74% 30.14 in 10.0 mi South 3.5 mph - N/A   Partly Cloudy
7:56 PM 48.0 °F - 39.9 °F 74% 30.14 in 10.0 mi Calm Calm - N/A   Partly Cloudy
8:56 PM 46.0 °F - 39.0 °F 76% 30.15 in 10.0 mi Calm Calm - N/A   Clear
9:56 PM 44.1 °F 42.5 °F 37.9 °F 79% 30.13 in 10.0 mi SE 3.5 mph - N/A   Clear
10:56 PM 41.0 °F - 37.9 °F 89% 30.13 in 10.0 mi Calm Calm - N/A   Clear
11:56 PM 42.1 °F - 39.0 °F 89% 30.11 in 10.0 mi Calm Calm - N/A   Clear